User: anonymous   Login
Location: Caltech
(34.1382°N, 118.1253°W)
Time: 10:05:47
(UTC-07:00)
Language:

Cosmos 1937 Rocket - Orbit

View from above orbital plane
View from above orbital plane
View from above satellite
View from above satellite

Ground track
Ground track

The orbit data is extracted from the following two-line orbital elements,

1 19039U 88029B   18170.86837153 -.00000040 +00000-0 -46065-5 0  9999
2 19039 074.0468 342.3314 0022917 063.3252 297.0245 14.38406692583430
Epoch (UTC): 19 June 2018 20:50:27
Eccentricity: 0.0022917
inclination: 74.0468°
perigee height: 747 km
apogee height: 780 km
right ascension of ascending node: 342.3314°
argument of perigee: 63.3252°
revolutions per day: 14.38406692
mean anomaly at epoch: 297.0245°
orbit number at epoch: 58343

The dashed part of the orbit path shows where the satellite is in the earth's shadow,  

DLR